| time (UTC) | temp F | wind direction | speed knots | gust knots | rain 1hr in | rain 24hr in | rain mn in | humidity % | barometer mb |
| 20260504014549 | 58 | 200 | 0.9 | 3.5 | 0.00 | 0.00 | 0.00 | 65 | 1010.2 |
| 20260504013047 | 59 | 196 | 1.7 | 3.5 | 0.00 | 0.00 | 0.00 | 65 | 1010.0 |
| 20260504011543 | 60 | 195 | 0.9 | 4.3 | 0.00 | 0.00 | 0.00 | 63 | 1010.0 |
| 20260504010051 | 61 | 198 | 1.7 | 4.3 | 0.00 | 0.00 | 0.00 | 62 | 1010.0 |
| 20260504004557 | 62 | 209 | 1.7 | 4.3 | 0.00 | 0.00 | 0.00 | 60 | 1009.9 |
| 20260504003041 | 63 | 211 | 2.6 | 7.0 | 0.00 | 0.00 | 0.00 | 58 | 1009.8 |
| 20260504001540 | 63 | 219 | 2.6 | 7.0 | 0.00 | 0.00 | 0.00 | 57 | 1009.7 |
| 20260504000038 | 64 | 196 | 3.5 | 7.8 | 0.00 | 0.00 | 0.00 | 56 | 1009.8 |
| 20260503234542 | 65 | 207 | 5.2 | 13.0 | 0.00 | 0.00 | 0.00 | 54 | 1009.9 |
| 20260503233037 | 65 | 211 | 4.3 | 10.4 | 0.00 | 0.00 | 0.00 | 54 | 1010.1 |
| 20260503231535 | 66 | 211 | 6.1 | 13.0 | 0.00 | 0.00 | 0.00 | 52 | 1010.2 |
| 20260503230038 | 65 | 199 | 6.1 | 12.2 | 0.00 | 0.00 | 0.00 | 53 | 1010.5 |
| 20260503224532 | 65 | 211 | 4.3 | 8.7 | 0.00 | 0.00 | 0.00 | 54 | 1010.7 |
| 20260503223031 | 65 | 208 | 6.1 | 12.2 | 0.00 | 0.00 | 0.00 | 54 | 1010.8 |
| 20260503221534 | 64 | 227 | 5.2 | 12.2 | 0.00 | 0.00 | 0.00 | 54 | 1010.9 |
| 20260503220029 | 64 | 205 | 4.3 | 13.0 | 0.00 | 0.00 | 0.00 | 54 | 1011.0 |
| 20260503214528 | 65 | 205 | 7.0 | 16.5 | 0.00 | 0.00 | 0.00 | 53 | 1010.9 |
| 20260503213027 | 63 | 213 | 10.4 | 23.5 | 0.00 | 0.00 | 0.00 | 54 | 1010.9 |
| 20260503211524 | 63 | 205 | 8.7 | 19.1 | 0.00 | 0.00 | 0.00 | 53 | 1011.4 |
| 20260503210026 | 63 | 221 | 6.1 | 13.9 | 0.00 | 0.00 | 0.00 | 52 | 1011.6 |
| 20260503204531 | 65 | 186 | 9.6 | 20.0 | 0.00 | 0.00 | 0.00 | 49 | 1011.7 |
| 20260503203023 | 64 | 168 | 9.6 | 24.3 | 0.00 | 0.00 | 0.00 | 51 | 1011.5 |
| 20260503201518 | 65 | 191 | 11.3 | 22.6 | 0.00 | 0.00 | 0.00 | 49 | 1012.0 |
| 20260503200015 | 65 | 194 | 12.2 | 21.7 | 0.00 | 0.00 | 0.00 | 49 | 1012.6 |
| 20260503194514 | 64 | 194 | 12.2 | 21.7 | 0.00 | 0.00 | 0.00 | 51 | 1013.0 |
| 20260503193011 | 64 | 205 | 8.7 | 24.3 | 0.00 | 0.00 | 0.00 | 50 | 1013.5 |
| 20260503191505 | 62 | 212 | 7.8 | 16.5 | 0.00 | 0.00 | 0.00 | 50 | 1013.8 |
| 20260503190002 | 61 | 196 | 7.8 | 16.5 | 0.00 | 0.00 | 0.00 | 51 | 1014.6 |
| 20260503184601 | 61 | 204 | 7.0 | 13.0 | 0.00 | 0.00 | 0.00 | 51 | 1014.8 |
| 20260503183114 | 61 | 215 | 7.8 | 15.6 | 0.00 | 0.00 | 0.00 | 50 | 1015.4 |
| 20260503181559 | 62 | 202 | 7.8 | 13.9 | 0.00 | 0.00 | 0.00 | 49 | 1015.4 |
| 20260503180056 | 63 | 231 | 7.0 | 13.0 | 0.00 | 0.00 | 0.00 | 48 | 1015.2 |
| 20260503174554 | 62 | 197 | 6.1 | 17.4 | 0.00 | 0.00 | 0.00 | 51 | 1015.5 |
| 20260503173115 | 62 | 175 | 6.1 | 13.9 | 0.00 | 0.00 | 0.00 | 52 | 1015.7 |
| 20260503171550 | 62 | 189 | 8.7 | 17.4 | 0.00 | 0.00 | 0.00 | 52 | 1016.2 |
| 20260503090131 | 37 | 288 | 0.0 | 0.0 | 0.00 | 0.00 | 0.00 | 81 | 1019.1 |
| 20260503081525 | 37 | 288 | 0.0 | 0.0 | 0.00 | 0.00 | 0.00 | 82 | 1019.2 |
| 20260503071519 | 38 | 288 | 0.0 | 0.0 | 0.00 | 0.00 | 0.00 | 78 | 1019.4 |
| 20260503054511 | 39 | 288 | 0.0 | 0.0 | 0.00 | 0.00 | 0.00 | 81 | 1019.9 |
| 20260503053010 | 39 | 288 | 0.0 | 0.0 | 0.00 | 0.00 | 0.00 | 81 | 1019.8 |
| 20260503051506 | 39 | 288 | 0.0 | 0.0 | 0.00 | 0.00 | 0.00 | 81 | 1020.0 |
| 20260503050004 | 40 | 288 | 0.0 | 0.0 | 0.00 | 0.00 | 0.00 | 81 | 1020.0 |
| 20260503044503 | 40 | 288 | 0.0 | 0.0 | 0.00 | 0.00 | 0.00 | 81 | 1019.9 |
| 20260503043007 | 40 | 288 | 0.0 | 0.0 | 0.00 | 0.00 | 0.00 | 81 | 1019.8 |
| 20260503041502 | 40 | 288 | 0.0 | 0.0 | 0.00 | 0.00 | 0.00 | 80 | 1019.9 |
| 20260503040002 | 41 | 288 | 0.0 | 0.0 | 0.00 | 0.00 | 0.00 | 78 | 1019.9 |
| 20260503034503 | 42 | 288 | 0.0 | 0.0 | 0.00 | 0.00 | 0.00 | 77 | 1019.9 |
| 20260503033103 | 42 | 288 | 0.0 | 0.0 | 0.00 | 0.00 | 0.00 | 76 | 1020.1 |
| 20260503033001 | 42 | 288 | 0.0 | 0.0 | 0.00 | 0.00 | 0.00 | 75 | 1020.1 |
| 20260503031600 | 43 | 288 | 0.0 | 0.0 | 0.00 | 0.00 | 0.00 | 72 | 1020.1 |
| 20260503030059 | 45 | 288 | 0.0 | 0.0 | 0.00 | 0.00 | 0.00 | 68 | 1020.1 |
| 20260503024605 | 46 | 288 | 0.0 | 0.9 | 0.00 | 0.00 | 0.00 | 68 | 1020.2 |
| 20260503023059 | 47 | 288 | 0.0 | 0.0 | 0.00 | 0.00 | 0.00 | 65 | 1020.0 |
| 20260503021556 | 47 | 288 | 0.0 | 0.9 | 0.00 | 0.00 | 0.00 | 63 | 1019.8 |